Location: Unspecified
(0.0000°N, 0.0000°E)
Time: 02:51:33
(UTC+00:00)

SJ-12 - Visible Passes

Search period start: 05 August 2021 00:00
Search period end: 15 August 2021 00:00
Orbit: 567 x 584 km, 97.7° (Epoch: 04 August)

Date Brightness Start Highest point End Pass type
(mag) Time Alt. Az. Time Alt. Az. Time Alt. Az.
05 Aug 4.2 04:28:49 10° NNE 04:32:54 65° ESE 04:35:09 25° S visible
06 Aug 4.0 04:32:30 10° NNE 04:36:36 75° E 04:38:56 25° S visible
07 Aug 3.9 04:36:12 10° NNE 04:40:20 86° ESE 04:42:44 24° S visible
08 Aug 3.8 04:39:55 10° N 04:44:03 83° W 04:46:31 24° SSW visible
09 Aug 3.8 04:43:39 10° N 04:47:45 73° WNW 04:50:20 22° SSW visible
10 Aug 3.9 04:47:23 10° N 04:51:28 63° WNW 04:54:08 21° SSW visible
11 Aug 4.0 04:51:10 10° N 04:55:12 55° W 04:57:56 19° SSW visible
12 Aug 4.1 04:54:56 10° N 04:58:54 48° WNW 05:01:44 18° SSW visible
13 Aug 4.3 04:58:43 10° N 05:02:37 42° WNW 05:05:33 16° SW visible
14 Aug 4.5 05:02:31 10° N 05:06:19 37° WNW 05:09:21 15° SW visible
